Home   Weather   Bad Hersfeld   Past weeks

Flag for Germany Past Weather in Bad Hersfeld, Hesse, Germany — Yesterday and Last 2 Weeks

Now
32 °F

Partly cloudy.


Feels Like: 22 °F
Forecast: 25 / 39 °F
Wind: 14 mph from South

Location: Fritzlar Airport

Current Time: Dec 8, 2016 at 5:17:13 pm

Latest Report: Dec 8, 2016 at 4:20 pm


Visibility: 4 mi

Pressure: 30.39 "Hg

Humidity: 87%

Dew Point: 28 °F

Location of Bad HersfeldLocation

Past Weather in Bad Hersfeld — Graph

°F

Bad Hersfeld Temperature Yesterday

Maximum temperature yesterday: 32 °F (at 4:20 pm)
Minimum temperature yesterday: 27 °F (at 12:20 am)
Average temperature yesterday: 29 °F

High & Low Weather Summary for the Past Weeks

 TemperatureHumidityPressure
High54 °F (Nov 24, 1:20 pm)100% (Nov 26, 6:46 am)30.60 "Hg (Nov 26, 6:46 am)
Low14 °F (Dec 5, 3:47 am)53% (Nov 25, 1:20 pm)30.04 "Hg (Nov 27, 2:20 am)
Average32 °F88%30.30 "Hg
* Reported Nov 23 3:20 pm — Dec 8 3:20 pm, Bad Hersfeld, Weather by CustomWeather, © 2016

Note: Actual official high and low records may vary slightly from our data, if they occured in-between our weather recording intervals... More about our weather records

Advertising

Bad Hersfeld Weather History for the Previous 24 Hours

Scroll right to see more
 ConditionsComfort  
Time TempWeatherWind HumidityBarometerVisibility
3:20 pm
Thu, Dec 8
32 °FBroken clouds.17 mph87%30.39 "Hg4 mi
2:20 pm32 °FPartly sunny.15 mph87%30.39 "Hg5 mi
1:20 pm32 °FPartly sunny.10 mph93%30.42 "Hg5 mi
12:20 pm32 °FPartly sunny.13 mph93%30.42 "Hg5 mi
11:20 am32 °FPartly sunny.14 mph93%30.45 "Hg5 mi
10:20 am32 °FBroken clouds.13 mph87%30.48 "Hg5 mi
9:20 am30 °FBroken clouds.13 mph93%30.48 "Hg5 mi
8:20 am30 °FBroken clouds.10 mph93%30.48 "Hg5 mi
7:20 am30 °FPartly cloudy.10 mph93%30.48 "Hg4 mi
6:20 am30 °FPassing clouds.13 mph93%30.45 "Hg4 mi
5:20 am30 °FPassing clouds.10 mph93%30.48 "Hg4 mi
5:04 am30 °FPassing clouds.9 mph93%30.48 "Hg4 mi
4:20 am30 °FPartly cloudy.7 mph93%30.48 "Hg4 mi
3:20 am30 °FPartly cloudy.7 mph93%30.48 "Hg4 mi
2:20 am32 °FPassing clouds.7 mph87%30.48 "Hg4 mi
1:20 am32 °FPassing clouds.9 mph87%30.48 "Hg5 mi
12:20 am32 °FPartly cloudy.9 mph93%30.51 "Hg5 mi
11:20 pm
Wed, Dec 7
32 °FPassing clouds.7 mph93%30.51 "Hg5 mi
10:20 pm32 °FPassing clouds.6 mph93%30.51 "Hg5 mi
9:20 pm32 °FPassing clouds.8 mph93%30.51 "Hg4 mi
8:20 pm32 °FPartly cloudy.10 mph93%30.51 "Hg4 mi
7:20 pm32 °FPassing clouds.10 mph93%30.51 "Hg4 mi
6:20 pm32 °FPartly cloudy.12 mph87%30.51 "Hg4 mi
5:20 pm32 °FPartly cloudy.9 mph87%30.48 "Hg4 mi
Weather by CustomWeather, © 2016

See weather overviewHow to use our weather pages